Location: Fort Wayne
(41.1310°N, 85.1290°W)
Time: 03:18:18
(UTC-04:00)

Cosmos 2056 Rocket - Visible Passes

Search period start: 30 May 2017 00:00
Search period end: 09 June 2017 00:00
Orbit: 742 x 801 km, 74.0° (Epoch: 29 May)

Date Brightness Start Highest point End Pass type
(mag) Time Alt. Az. Time Alt. Az. Time Alt. Az.
30 May 3.6 21:33:52 10° NNW 21:38:59 61° ENE 21:44:01 10° SSE visible
30 May 5.9 23:17:39 10° WNW 23:20:30 15° W 23:23:21 10° SW visible
31 May 5.3 22:40:38 10° NW 22:44:50 26° W 22:49:00 10° SSW visible
01 Jun 4.5 22:04:13 10° NNW 22:09:04 44° WSW 22:13:52 10° S visible
03 Jun 6.0 22:36:08 10° WNW 22:38:44 14° W 22:41:19 10° SW visible
04 Jun 5.6 21:59:00 10° NW 22:03:04 24° W 22:07:06 10° SSW visible
07 Jun 6.2 21:54:40 10° WNW 21:56:57 13° W 21:59:15 10° WSW visible
